Christmas Island, Australian Islands

1:11 PM CXT on August 27, 2016 (GMT +0700)
Christmas Island

Weather History for YPXM - December, 2013

Change the Weather History Date:

Monday, December 30, 2013

  Actual Average Record
Temperature  
Mean Temperature 78 °F -  
Max Temperature 84 °F 80 °F 86 °F (2012)
Min Temperature 71 °F 71 °F 66 °F (2004)
Cooling Degree Days 12    
Growing Degree Days 28 (Base 50)    
Moisture  
Dew Point 71 °F    
Average Humidity 78    
Maximum Humidity 94    
Minimum Humidity 60    
Precipitation  
Precipitation 0.00 in - - ()
Sea Level Pressure  
Sea Level Pressure 29.83 in    
Wind  
Wind Speed 5 mph ()    
Max Wind Speed 8 mph    
Max Gust Speed -    
Visibility 6.2 miles    
Events      
Averages and records for this station are not official NWS values.
T = Trace of Precipitation, MM = Missing Value Source: Averaged Metar Reports

Daily Weather History Graph

Daily Weather History Graph

Search for Another Location

Airport or City:

Trip Planner

Search our weather history database for the weather conditions in past years. The results will help you decide how hot, cold, wet, or windy it might be!

Date:

Astronomy

Dec. 30, 2013 Rise Set
Actual Time 5:37 AM CXT 6:21 PM CXT
Civil Twilight 5:14 AM CXT 6:44 PM CXT
Nautical Twilight 4:47 AM CXT 7:11 PM CXT
Astronomical Twilight 4:20 AM CXT 7:39 PM CXT
Moon 3:10 AM CXT (12/30) 4:08 PM CXT (12/30)
Length of Visible Light 13h 29m
Length of Day
12h 43m
Waning Crescent, 7% of the Moon is Illuminated
Dec 30
Waning Crescent
Jan 1
New
Jan 8
First Quarter
Jan 16
Full
Jan 24
Last Quarter

Hourly Weather History & Observations

Time (CXT) Temp. Heat Index Dew Point Humidity Pressure Visibility Wind Dir Wind Speed Gust Speed Precip Events Conditions
12:00 AM 74 °F - 71 °F 88% 29.82 in - WSW 5.8 mph - -  
12:00 AM 75.2 °F - 71.6 °F 89% 29.86 in - WSW 5.8 mph - N/A   Unknown
1:00 AM 74 °F - 71 °F 88% 29.81 in - West 3.5 mph - -  
1:00 AM 73.4 °F - 71.6 °F 94% 29.83 in - West 3.5 mph - N/A   Unknown
2:00 AM 73.4 °F - 69.8 °F 88% 29.83 in - West 4.6 mph - N/A   Unknown
3:00 AM 73 °F - 71 °F 89% 29.78 in - West 4.6 mph - -  
3:00 AM 73.4 °F - 69.8 °F 88% 29.83 in - West 4.6 mph - N/A   Unknown
4:00 AM 72 °F - 70 °F 91% 29.78 in - West 4.6 mph - -  
4:00 AM 73.4 °F - 69.8 °F 88% 29.80 in - West 4.6 mph - N/A   Unknown
5:00 AM 71.6 °F - 69.8 °F 94% 29.83 in - West 4.6 mph - N/A   Unknown
6:00 AM 72 °F - 70 °F 92% 29.80 in - West 3.5 mph - -  
6:00 AM 71.6 °F - 69.8 °F 94% 29.83 in - West 3.5 mph - N/A   Unknown
7:00 AM 77 °F - 72 °F 81% 29.81 in - WSW 3.5 mph - -  
7:00 AM 77.0 °F - 71.6 °F 83% 29.86 in - WSW 3.5 mph - N/A   Unknown
8:00 AM 78.8 °F - 71.6 °F 78% 29.86 in 6.2 mi West 4.6 mph - N/A   Unknown
9:00 AM 80 °F - 71 °F 66% 29.85 in - West 5.8 mph - -  
9:00 AM 80.6 °F 84.6 °F 71.6 °F 74% 29.89 in 6.2 mi West 5.8 mph - N/A   Scattered Clouds
10:00 AM 81 °F - 70 °F 63% 29.84 in - West 6.9 mph - -  
10:00 AM 80.6 °F 83.9 °F 69.8 °F 70% 29.89 in 6.2 mi West 6.9 mph - N/A   Scattered Clouds
11:00 AM 82.4 °F 87.2 °F 71.6 °F 70% 29.86 in 6.2 mi WNW 6.9 mph - N/A   Scattered Clouds
12:00 PM 82 °F - 71 °F 60% 29.82 in - NW 8.1 mph - -  
12:00 PM 82.4 °F 86.3 °F 69.8 °F 66% 29.86 in 6.2 mi NW 8.1 mph - N/A   Unknown
1:00 PM 83 °F - 71 °F 60% 29.80 in - West 8.1 mph - -  
1:00 PM 82.4 °F 87.2 °F 71.6 °F 70% 29.83 in 6.2 mi West 8.1 mph - N/A   Scattered Clouds
2:00 PM 82.4 °F 87.2 °F 71.6 °F 70% 29.80 in 6.2 mi SW 5.8 mph - N/A   Mostly Cloudy
3:00 PM 82 °F - 71 °F 60% 29.75 in - WSW 5.8 mph - -   Overcast
3:00 PM 82.4 °F 86.3 °F 69.8 °F 66% 29.80 in 6.2 mi WSW 5.8 mph - N/A   Overcast
4:00 PM 81 °F - 71 °F 64% 29.75 in - WNW 6.9 mph - -  
4:00 PM 80.6 °F 84.6 °F 71.6 °F 74% 29.80 in 6.2 mi WNW 6.9 mph - N/A   Unknown
5:00 PM 80.6 °F 84.6 °F 71.6 °F 74% 29.80 in 6.2 mi West 4.6 mph - N/A   Scattered Clouds
6:00 PM 78 °F - 70 °F 71% 29.78 in - West 4.6 mph - -  
6:00 PM 78.8 °F - 69.8 °F 74% 29.83 in 6.2 mi West 4.6 mph - N/A   Unknown
7:00 PM 76 °F - 70 °F 78% 29.81 in - WSW 3.5 mph - -  
7:00 PM 75.2 °F - 69.8 °F 83% 29.86 in - WSW 3.5 mph - N/A   Unknown
8:00 PM 75.2 °F - 69.8 °F 83% 29.86 in - West 3.5 mph - N/A   Unknown
9:00 PM 75 °F - 70 °F 81% 29.84 in - West 4.6 mph - -  
9:00 PM 75.2 °F - 69.8 °F 83% 29.89 in - West 4.6 mph - N/A   Unknown
10:00 PM 75 °F - 70 °F 79% 29.85 in - West 4.6 mph - -  
10:00 PM 75.2 °F - 69.8 °F 83% 29.89 in - West 4.6 mph - N/A   Unknown
11:00 PM 75.2 °F - 71.6 °F 89% 29.89 in - West 4.6 mph - N/A   Unknown